Orbital Elements
Epoch 2018 July 21.0 TT = JDT 2458320.5
T 2018 July 2.49125 TT MPCW
q 2.7803961 (2000.0) P Q
n 0.08960823 Peri. 219.20737 +0.46928068 -0.87794404
a 4.9458103 Node 203.27742 +0.85847142 +0.47873791
e 0.4378280 Incl. 13.88222 +0.20688756 +0.00492715
P 11.00
From 207 observations 2006 Oct. 11-2018 Jan. 27, mean residual 0".5.
|